Temp
5 6 5 4 4 3 3 2 2 2 3 2 1 1 3 4 2 1 1 1 1 3 5 4 2 1 1 2 5 11 9 9 8 8 9 8 8 8 9 10 11 10 11 12 12 13 13
3 2 2 2 2 2 2 1 1 1 2 2 1 1 1 0 2 1 0 1 2 4 4 2 1 1 1 0 8 7 7 7 8 8 8 8 7 9 9 10 10 12 12 11 12 12 12
2 2 2 2 1 1 1 1 1 1 1 1 1 0 0 1 0 1 3 5 6 6 6 3 2 2 2 3 6 5 5 5 6 7 7 6 8 8 10 10 11 11 10 11 12 12 12
2 2 2 1 1 2 2 1 1 1 1 0 0 0 -0 -0 0 2 3 5 7 7 5 6 3 3 3 6 4 4 5 5 6 6 6 6 7 6 8 9 10 10 10 9 12 12 12
2 2 1 1 1 1 1 1 1 1 0 0 -0 -0 -1 -0 2 2 2 3 6 6 5 5 4 3 4 5 4 4 4 4 5 5 6 6 6 6 5 6 8 9 9 9 11 13 11
1 1 1 1 1 1 1 1 0 0 -0 -0 -0 -1 -0 1 2 2 2 3 4 5 5 5 3 3 4 2 3 3 4 4 4 4 5 6 6 5 6 5 7 8 8 9 10 11 12
1 1 1 1 1 0 0 -0 -0 -0 -0 -0 -1 -1 1 2 2 2 1 2 -0 2 0 1 0 -0 2 3 4 3 4 4 3 3 2 4 4 3 5 6 6 7 9 10 11 11 12
-0 1 1 1 0 -0 -1 -1 -0 -1 -1 -1 -1 -0 -0 2 2 2 1 0 -1 -3 -1 1 2 2 3 3 3 4 4 3 2 1 2 1 2 5 5 6 6 6 5 6 10 10 10
0 1 -0 -0 -0 -1 -1 -1 -1 -1 -1 -1 0 1 0 1 2 2 0 0 -0 -1 -1 0 3 3 3 3 3 3 3 3 1 1 2 0 1 2 3 4 3 5 5 6 6 8 11
0 -1 -1 -1 -1 -1 -1 -1 -1 -1 -1 -0 1 1 1 1 1 -0 -0 0 0 -1 -3 2 3 3 3 3 2 3 2 2 0 -0 0 1 2 3 4 3 3 2 6 6 7 6 7
-1 -1 -1 -1 -1 -1 -1 -1 -2 -1 -1 0 1 0 1 1 -0 -1 -0 0 0 -0 -5 2 2 3 2 2 2 2 2 1 -1 -1 -2 -1 -0 1 2 1 4 3 5 5 4 5 5
-0 -0 -1 -1 -1 -1 -1 -1 -1 -2 -1 0 1 1 0 1 1 -0 0 0 0 -3 -5 1 2 1 1 2 2 2 2 1 0 -1 -0 -1 1 0 0 3 3 4 4 5 5 5 5
-1 -0 -1 -1 -1 -1 -1 -2 -2 -2 -1 0 1 0 0 0 -0 -0 -0 -0 -4 -3 0 -1 -0 0 0 0 0 1 0 -5 -3 -4 -3 -2 -1 -0 1 -1 2 3 3 3 3 4 5
0 -0 -1 -1 -1 -2 -2 -2 -2 -2 -2 -0 1 -0 0 0 -1 0 -0 -2 -3 -1 -1 0 -0 -0 -0 -0 -1 -0 -1 -4 -3 -6 -5 -5 -3 -0 2 -1 -1 -0 1 4 3 4 5
0 -1 -1 -1 -2 -2 -2 -2 -2 -2 -2 -1 1 0 0 -0 -0 -0 -1 -4 -2 -2 -1 -1 -1 -1 -2 -1 -2 -3 -3 -7 -5 -6 -5 -6 -3 0 2 1 -1 2 2 5 2 2 3
-1 -2 -2 -2 -2 -2 -2 -2 -2 -2 -2 -1 -0 -1 -0 -0 0 0 -4 -1 -2 -1 -0 -1 -3 -2 -3 -3 -3 -4 -5 -6 -4 -4 -6 -4 -4 -0 0 1 1 1 1 4 4 5 6
-0 -0 -1 -2 -3 -3 -2 -2 -3 -3 -3 -1 -0 -2 0 -0 1 0 -6 -5 -2 -0 -1 -1 -2 -3 -7 -5 -3 -5 -7 -3 -4 -1 -4 -7 -7 -2 -1 -2 -2 -0 -2 -0 4 4 3
1 -1 -2 -3 -2 -2 -2 -3 -3 -3 -3 -1 -2 -4 -0 -0 -2 -2 -5 -3 -1 -1 -1 -1 -1 -5 -6 -3 -4 -4 -4 -5 -1 -2 -6 -6 -7 -4 -2 -2 -2 -1 -2 -2 0 2 6
1 -1 -3 -3 -3 -3 -2 -3 -3 -3 -3 -2 -3 -3 -0 -1 -6 -5 -3 -3 -2 -1 -1 -2 -2 -1 -2 -3 -4 -3 -2 -1 -1 -2 -6 -3 -6 -4 -3 -2 -1 -3 -3 -3 -2 1 6
0 -3 -3 -3 -3 -3 -3 -3 -3 -3 -3 -2 -3 -7 -2 -1 -2 -7 -8 -4 -2 -1 -1 -1 -2 -2 -3 -3 -3 -5 -3 -1 -1 -2 -0 -2 -5 -5 -4 -4 -3 -3 -3 -3 -0 2 4
-1 -2 -3 -3 -3 -3 -3 -3 -3 -3 -3 -2 -3 -4 -3 -7 -4 -5 -5 -6 -3 -3 -2 -2 -3 -2 -5 -6 -4 -4 -3 -3 -2 -2 -2 -6 -6 -3 -2 -2 -2 -3 -2 -1 -0 1 4
-0 -1 -3 -3 -3 -3 -3 -4 -4 -3 -3 -3 -3 -4 -4 -4 -4 -5 -4 -6 -3 -3 -4 -4 -3 -3 -3 -7 -4 -5 -4 -4 -4 -3 -4 -4 -5 -3 -4 -1 -0 -2 -0 -1 -1 1 2
-0 -2 -3 -3 -3 -3 -4 -4 -4 -4 -4 -4 -4 -4 -4 -4 -5 -8 -5 -4 -5 -3 -3 -2 -3 -4 -4 -3 -3 -3 -3 -3 -4 -4 -4 -5 -5 -4 -4 -2 -3 -1 -2 -2 -2 -3 -1
-1 -3 -3 -3 -3 -4 -4 -4 -4 -4 -4 -4 -4 -4 -4 -4 -5 -3 -3 -3 -4 -3 -4 -2 -2 -4 -2 -3 -2 -2 -2 -2 -2 -2 -2 -4 -5 -3 -4 -2 -0 -1 -3 -2 -2 -4 -4
-1 -2 -3 -3 -3 -4 -4 -4 -4 -4 -4 -4 -4 -4 -4 -4 -4 -3 -4 -3 -4 -3 -4 -3 -2 -2 -2 -3 -6 -5 -4 -3 -2 -2 -3 -3 -3 -4 -4 -3 -2 -2 -3 -2 -3 -3 -4
-1 -2 -4 -3 -4 -4 -4 -4 -4 -4 -4 -4 -4 -4 -4 -4 -5 -4 -4 -4 -7 -10 -8 -3 -3 -3 -3 -6 -6 -8 -5 -4 -4 -3 -2 -3 -4 -4 -3 -3 -1 -5 -2 -2 -2 -1 -4
-1 -2 -3 -3 -4 -4 -4 -4 -4 -4 -4 -4 -4 -4 -5 -4 -4 -4 -6 -7 -4 -5 -10 -6 -5 -4 -3 -7 -7 -7 -5 -4 -5 -5 -6 -6 -5 -6 -3 -3 -3 -5 -3 -1 -3 -5 -5
-1 -3 -2 -3 -4 -4 -4 -4 -4 -4 -4 -4 -4 -5 -5 -5 -5 -4 -4 -5 -5 -5 -6 -5 -7 -5 -8 -8 -7 -9 -10 -9 -7 -4 -4 -5 -6 -4 -4 -4 -4 -5 -4 -5 -6 -5 -5
-2 -2 -3 -3 -3 -4 -4 -4 -4 -4 -4 -4 -4 -4 -5 -5 -5 -4 -4 -4 -4 -4 -5 -5 -5 -5 -5 -6 -7 -6 -6 -9 -11 -8 -5 -6 -7 -6 -6 -4 -5 -5 -5 -6 -6 -6 -6
Height
1558 1557 1555 1554 1552 1550 1550 1546 1542 1539 1537 1533 1530 1525 1519 1515 1510 1506 1501 1496 1491 1487 1484 1480 1478 1477 1477 1475 1458 1463 1460 1458 1458 1459 1458 1460 1461 1462 1455 1449 1455 1447 1444 1442 1445 1445 1442
1559 1557 1556 1554 1552 1550 1548 1545 1542 1539 1536 1533 1528 1523 1518 1513 1507 1502 1497 1493 1487 1483 1478 1475 1472 1473 1473 1471 1458 1458 1457 1456 1455 1454 1455 1456 1456 1457 1451 1446 1444 1434 1440 1437 1437 1436 1438
1559 1557 1556 1554 1552 1550 1548 1544 1542 1538 1535 1531 1526 1521 1516 1510 1505 1498 1492 1486 1483 1478 1473 1469 1467 1467 1466 1458 1458 1456 1451 1450 1451 1450 1448 1449 1449 1453 1444 1445 1436 1434 1436 1431 1423 1426 1430
1559 1558 1556 1554 1552 1550 1548 1544 1541 1538 1534 1530 1524 1519 1513 1508 1502 1496 1490 1484 1479 1475 1469 1465 1464 1465 1460 1455 1456 1453 1450 1447 1448 1447 1444 1444 1444 1441 1439 1437 1429 1429 1432 1427 1392 1416 1417
1559 1558 1556 1554 1552 1550 1547 1544 1541 1537 1533 1528 1523 1518 1512 1506 1501 1494 1487 1480 1474 1467 1463 1465 1464 1464 1459 1458 1455 1453 1451 1446 1443 1440 1439 1439 1440 1437 1439 1434 1426 1422 1405 1390 1390 1403 1412
1559 1557 1555 1554 1551 1548 1545 1543 1539 1535 1531 1527 1522 1516 1510 1504 1499 1492 1485 1477 1470 1466 1465 1465 1464 1468 1461 1461 1457 1453 1450 1444 1440 1435 1433 1434 1432 1431 1428 1422 1399 1397 1401 1397 1400 1406 1410
1558 1557 1555 1553 1550 1547 1545 1541 1537 1534 1530 1526 1520 1514 1507 1502 1498 1491 1484 1474 1471 1469 1474 1472 1469 1473 1468 1463 1458 1454 1446 1442 1440 1438 1438 1432 1430 1417 1408 1408 1410 1404 1397 1390 1389 1397 1401
1558 1557 1555 1553 1550 1546 1543 1540 1537 1533 1528 1523 1518 1512 1507 1501 1498 1494 1488 1485 1490 1489 1474 1469 1467 1466 1465 1462 1455 1451 1447 1444 1440 1438 1435 1431 1423 1413 1413 1406 1404 1400 1400 1393 1383 1388 1396
1557 1555 1553 1551 1549 1545 1543 1540 1536 1531 1526 1521 1516 1510 1505 1500 1496 1494 1492 1491 1490 1487 1484 1471 1467 1465 1463 1460 1456 1452 1449 1446 1442 1435 1432 1431 1421 1419 1413 1407 1403 1394 1395 1394 1396 1387 1384
1556 1554 1552 1550 1547 1545 1542 1538 1534 1530 1526 1520 1514 1509 1504 1498 1497 1494 1493 1491 1489 1486 1488 1475 1469 1468 1464 1457 1455 1452 1450 1449 1443 1439 1431 1423 1414 1410 1408 1405 1401 1402 1388 1389 1389 1393 1377
1555 1553 1551 1549 1547 1544 1541 1538 1534 1530 1524 1519 1514 1509 1504 1499 1497 1494 1493 1488 1485 1486 1507 1474 1473 1470 1466 1463 1460 1454 1450 1445 1444 1440 1440 1426 1415 1408 1404 1401 1394 1393 1384 1387 1388 1383 1389
1554 1553 1551 1549 1546 1543 1540 1538 1534 1529 1524 1518 1513 1507 1502 1500 1498 1495 1488 1483 1481 1490 1501 1477 1474 1469 1463 1460 1459 1454 1449 1446 1443 1438 1429 1421 1407 1402 1397 1393 1390 1381 1378 1377 1381 1382 1370
1554 1552 1550 1548 1546 1543 1541 1537 1533 1528 1522 1517 1511 1505 1501 1499 1497 1492 1485 1482 1493 1493 1484 1483 1476 1472 1467 1464 1459 1454 1450 1453 1448 1448 1434 1415 1405 1396 1393 1393 1376 1374 1367 1376 1380 1372 1366
1553 1551 1550 1548 1546 1543 1539 1536 1532 1528 1522 1516 1510 1505 1501 1500 1497 1492 1487 1487 1495 1492 1488 1482 1477 1471 1468 1466 1462 1457 1453 1454 1445 1450 1445 1439 1414 1402 1392 1397 1391 1377 1374 1352 1364 1360 1363
1552 1551 1550 1548 1545 1541 1538 1535 1531 1527 1521 1516 1509 1504 1503 1502 1496 1492 1491 1501 1500 1500 1493 1484 1477 1473 1471 1467 1466 1463 1457 1461 1450 1447 1451 1446 1419 1402 1393 1390 1388 1361 1353 1337 1355 1359 1365
1553 1551 1549 1546 1543 1540 1537 1533 1530 1525 1520 1516 1509 1507 1505 1501 1498 1495 1498 1497 1500 1497 1492 1485 1485 1477 1477 1471 1470 1468 1463 1456 1451 1445 1441 1437 1421 1397 1390 1383 1373 1365 1356 1342 1348 1346 1338
1552 1551 1548 1545 1542 1539 1537 1533 1529 1525 1520 1516 1510 1508 1507 1503 1500 1498 1510 1508 1499 1494 1492 1487 1482 1480 1483 1479 1469 1469 1470 1454 1448 1441 1437 1437 1437 1403 1393 1391 1389 1369 1373 1363 1341 1345 1353
1551 1550 1547 1545 1542 1540 1536 1533 1529 1525 1520 1515 1511 1511 1508 1505 1505 1504 1508 1502 1499 1494 1491 1487 1480 1481 1481 1473 1471 1466 1463 1457 1446 1442 1443 1434 1436 1416 1399 1389 1386 1385 1384 1382 1368 1356 1334
1550 1548 1547 1545 1542 1539 1536 1533 1529 1525 1519 1514 1512 1512 1508 1505 1515 1511 1505 1501 1499 1495 1491 1488 1484 1479 1475 1473 1472 1463 1457 1451 1446 1443 1444 1433 1437 1422 1398 1390 1384 1389 1384 1388 1382 1364 1333
1548 1547 1545 1544 1542 1539 1535 1532 1529 1524 1519 1515 1514 1516 1511 1508 1509 1513 1513 1503 1497 1493 1490 1488 1484 1480 1475 1470 1466 1465 1455 1448 1445 1443 1436 1433 1433 1435 1431 1424 1411 1401 1387 1386 1374 1355 1343
1547 1545 1543 1542 1540 1538 1534 1531 1528 1523 1519 1517 1516 1518 1517 1517 1509 1508 1508 1504 1498 1492 1490 1487 1483 1480 1480 1476 1464 1459 1454 1445 1439 1438 1435 1437 1434 1421 1412 1410 1406 1398 1384 1372 1370 1361 1346
1545 1544 1543 1540 1538 1536 1533 1529 1526 1523 1520 1518 1519 1519 1516 1512 1508 1506 1502 1499 1495 1493 1493 1488 1484 1478 1473 1477 1468 1461 1454 1446 1444 1435 1437 1432 1431 1420 1411 1399 1397 1398 1379 1370 1372 1365 1364
1543 1542 1541 1538 1537 1534 1531 1529 1525 1523 1520 1519 1519 1517 1514 1508 1507 1508 1504 1501 1498 1492 1488 1486 1482 1477 1471 1466 1461 1453 1446 1441 1441 1441 1436 1436 1432 1428 1415 1401 1400 1393 1397 1394 1391 1389 1384
1541 1541 1539 1537 1534 1532 1529 1527 1524 1523 1521 1520 1518 1514 1513 1507 1506 1503 1500 1496 1494 1493 1490 1482 1479 1476 1470 1463 1452 1443 1438 1434 1434 1435 1434 1437 1435 1426 1421 1404 1389 1406 1410 1405 1400 1405 1404
1539 1538 1537 1535 1531 1529 1527 1525 1523 1521 1519 1517 1515 1513 1508 1503 1500 1496 1495 1492 1489 1488 1485 1482 1477 1475 1469 1462 1461 1455 1447 1440 1435 1435 1434 1434 1433 1430 1429 1417 1410 1407 1411 1406 1408 1405 1410
1537 1535 1534 1532 1530 1527 1524 1522 1520 1518 1516 1513 1511 1510 1507 1504 1497 1497 1493 1489 1488 1488 1484 1479 1475 1472 1468 1466 1468 1475 1461 1452 1445 1437 1434 1431 1430 1434 1428 1422 1408 1435 1415 1404 1399 1400 1412
1534 1533 1531 1529 1527 1525 1522 1519 1517 1515 1512 1509 1506 1504 1503 1499 1494 1495 1493 1490 1486 1486 1487 1479 1475 1471 1469 1472 1473 1472 1466 1457 1456 1453 1450 1443 1438 1443 1430 1426 1425 1436 1420 1406 1414 1434 1422
1531 1529 1527 1526 1524 1521 1519 1516 1514 1511 1508 1505 1503 1501 1502 1499 1491 1491 1490 1487 1485 1486 1487 1481 1478 1474 1473 1478 1475 1478 1480 1472 1467 1453 1452 1451 1453 1443 1437 1437 1438 1436 1425 1429 1444 1436 1430
1528 1527 1525 1522 1521 1519 1516 1513 1511 1508 1506 1502 1501 1499 1497 1497 1492 1489 1486 1485 1483 1485 1485 1482 1480 1477 1474 1474 1474 1471 1470 1473 1477 1473 1453 1461 1465 1459 1459 1446 1448 1447 1445 1444 1441 1434 1427
Wind_Speed
10 11 12 13 14 17 16 17 21 20 19 21 23 26 27 27 28 29 29 30 30 29 28 28 26 21 15 11 24 20 20 21 11 12 20 29 29 28 20 13 22 27 14 21 31 32 26
9 12 12 13 14 15 16 17 20 20 21 22 25 26 27 29 31 32 32 32 32 32 31 27 24 16 10 11 9 7 10 16 10 8 24 26 24 29 18 26 22 6 30 32 27 24 23
9 10 13 13 15 16 18 18 22 21 20 24 26 27 29 30 31 33 34 34 32 32 28 24 17 8 13 27 13 15 18 22 19 19 26 23 28 31 13 19 34 36 19 13 30 34 16
10 11 12 15 16 17 16 19 19 19 22 25 26 28 30 30 32 34 35 34 34 27 23 19 8 7 10 10 8 16 25 22 18 18 23 25 30 26 38 27 27 18 26 24 35 22 26
10 11 13 15 14 13 17 19 19 21 23 25 26 29 31 32 34 34 31 35 29 21 13 15 7 6 9 1 15 34 22 32 28 27 25 21 23 27 17 16 20 18 25 36 30 22 8
10 11 13 13 14 16 16 17 19 21 23 25 26 28 31 33 35 30 33 36 22 5 5 8 4 11 1 24 31 26 30 24 25 25 23 13 15 12 16 14 27 31 27 24 20 11 16
10 11 13 14 13 16 18 19 21 23 24 25 26 28 32 33 32 25 31 31 26 6 26 3 27 13 18 22 26 29 26 25 18 18 7 13 10 18 29 27 23 22 24 22 27 11 13
11 12 10 11 13 16 18 19 21 22 24 25 28 29 31 33 29 22 21 26 18 15 12 27 10 2 8 24 20 24 29 14 7 14 13 5 14 18 21 22 23 27 27 21 16 9 19
10 10 12 12 14 16 18 20 22 23 25 27 29 30 32 31 22 21 16 20 23 19 5 12 6 6 13 26 12 27 26 18 8 14 10 11 16 23 18 20 20 27 27 25 13 8 17
8 10 11 12 14 16 18 19 21 23 26 28 28 30 31 30 14 20 18 26 25 15 2 2 5 5 20 22 13 20 24 16 6 10 17 13 12 14 21 19 18 21 23 23 22 9 14
9 11 11 13 15 16 18 21 24 25 28 29 29 29 27 23 18 15 25 27 18 3 5 6 13 13 31 13 20 13 17 15 7 10 4 13 21 20 20 21 21 20 24 18 14 14 13
7 12 11 12 14 17 17 21 25 27 30 30 30 29 22 19 20 24 26 26 6 4 4 3 12 14 19 18 17 19 17 11 12 10 13 17 26 17 15 20 22 22 20 19 15 16 14
8 10 11 11 15 18 19 19 23 25 29 32 30 26 14 17 23 32 28 16 4 4 8 12 14 16 17 14 16 14 15 5 3 8 19 15 17 2 8 21 13 11 11 8 12 11 12
8 9 12 15 15 16 18 20 23 26 28 31 31 17 8 14 20 25 21 5 6 10 6 14 14 16 9 14 11 15 17 6 3 2 7 8 20 16 19 4 10 21 8 6 15 10 10
7 10 11 11 14 16 17 19 21 25 29 31 27 12 10 17 25 18 11 4 4 7 12 12 12 7 8 17 6 7 9 3 3 1 5 6 15 24 14 19 11 4 8 15 3 1 5
8 9 10 12 14 16 17 20 21 24 29 31 26 12 13 24 19 15 6 7 5 6 15 11 4 7 10 11 8 9 5 4 10 3 2 6 14 9 18 15 8 8 8 6 6 5 8
8 10 11 12 14 16 18 20 23 24 27 29 21 8 19 22 11 13 3 3 6 20 21 6 10 6 5 4 9 5 5 9 5 17 4 2 1 17 14 6 12 8 7 6 0 3 2
8 10 11 13 15 16 18 21 22 23 26 28 11 4 18 15 10 5 3 6 16 14 19 5 6 0 2 7 6 5 7 4 22 8 8 4 3 12 21 5 8 5 6 7 4 3 2
9 10 11 12 14 16 17 19 21 23 24 27 9 4 18 11 3 4 7 6 5 9 8 7 5 9 10 5 5 13 11 18 18 13 7 5 3 11 14 4 3 5 13 12 14 5 3
8 9 11 12 13 15 18 18 20 21 22 21 6 3 8 6 19 3 4 5 9 13 9 13 7 8 12 11 11 9 10 10 20 17 24 15 4 3 8 13 14 21 25 19 9 2 4
8 10 10 13 13 14 17 19 19 19 21 16 6 3 4 4 8 10 3 3 7 11 3 9 5 11 6 7 11 6 17 20 23 19 5 3 7 14 16 16 18 19 21 17 6 4 4
8 9 9 12 12 14 16 16 16 17 21 14 7 5 5 11 12 5 5 4 4 9 1 6 9 13 8 4 6 17 17 19 10 7 7 2 5 14 16 13 11 16 20 26 18 15 12
8 8 9 11 12 14 15 16 16 15 17 8 13 16 10 5 4 2 3 4 8 11 8 18 10 8 9 9 20 29 30 24 15 10 13 2 3 7 6 15 17 4 19 16 16 25 16
7 9 10 10 12 14 14 15 14 14 13 15 18 19 6 7 2 7 13 17 9 13 8 17 17 2 12 32 29 19 14 13 7 3 6 3 4 3 5 12 5 5 17 11 10 16 19
7 9 9 11 13 14 14 15 15 14 12 17 19 18 5 3 10 10 12 7 9 17 9 13 9 14 23 13 5 6 5 6 4 4 5 2 2 4 3 4 5 12 22 17 9 7 21
9 9 10 12 13 14 15 15 14 13 15 18 20 19 10 9 3 16 9 6 4 3 6 6 10 18 10 2 3 2 3 5 6 11 5 9 2 0 4 4 7 12 22 28 8 3 25
10 10 11 13 13 15 15 16 15 14 16 19 20 12 8 7 14 9 5 4 6 3 2 6 13 7 7 3 2 1 3 4 5 7 7 6 4 1 5 2 4 16 20 13 8 8 31
10 10 13 13 14 15 16 15 15 15 16 19 15 4 8 8 21 7 5 15 8 6 2 9 8 5 4 3 1 3 1 3 3 5 5 5 4 4 5 4 4 27 8 7 7 18 24
9 11 12 13 14 16 17 15 16 15 16 17 13 10 11 10 12 16 4 4 3 7 10 4 4 5 4 1 1 1 2 2 2 3 6 4 2 2 2 3 5 14 8 12 21 23 25
Wind_Direction
31 22 22 19 17 20 11 3 360 5 358 354 352 346 343 339 338 337 332 328 326 331 328 318 313 313 304 268 258 270 289 294 304 270 232 220 219 223 229 211 225 228 234 218 233 248 254
28 26 24 19 13 14 2 2 0 0 357 352 347 346 344 342 341 339 334 330 332 334 324 318 315 302 256 254 300 339 291 305 261 260 240 233 231 236 265 233 210 215 231 240 242 231 240
25 24 15 12 10 11 7 5 357 2 352 351 344 344 342 341 340 339 336 333 333 328 316 314 314 290 247 257 324 347 315 316 299 280 282 259 245 245 262 255 242 245 264 256 233 231 235
28 21 10 8 13 5 6 0 3 354 351 344 346 343 342 342 341 342 336 333 330 323 309 316 313 270 258 339 347 324 331 320 298 292 292 283 269 269 254 260 277 241 239 248 241 219 229
25 19 9 18 10 5 350 1 356 353 345 347 345 342 342 341 346 342 338 336 334 311 293 329 298 245 273 330 320 333 342 331 321 301 280 294 273 261 275 256 255 238 235 225 242 217 169
22 15 13 10 5 359 3 357 356 347 350 348 347 344 344 345 350 343 344 343 354 26 327 26 71 338 308 322 339 337 332 334 329 312 303 280 249 242 247 227 225 234 233 248 247 220 212
23 14 17 9 359 348 353 351 351 358 352 348 344 344 344 346 351 348 352 7 14 359 351 290 299 290 306 341 340 337 359 338 345 349 332 307 251 224 237 250 261 264 251 246 236 216 210
12 18 12 358 346 1 352 356 359 351 351 349 346 346 345 344 352 354 3 22 13 333 307 319 339 356 352 340 322 348 354 357 338 322 312 290 249 269 269 261 259 263 270 265 239 196 216
35 16 5 4 7 356 3 358 356 355 351 349 351 347 345 343 353 355 11 358 342 355 311 312 326 29 350 341 338 347 359 333 296 304 298 289 283 286 288 280 270 253 252 258 272 239 232
20 15 9 11 6 2 0 357 354 353 351 351 352 349 346 347 2 357 356 341 340 345 352 2 27 9 347 351 7 348 4 6 329 301 306 285 261 281 291 283 282 273 257 265 253 271 230
8 4 12 9 6 354 360 358 358 355 351 351 350 348 347 359 352 351 335 331 332 337 1 20 8 338 342 359 338 345 352 360 320 308 351 286 289 287 282 264 269 275 253 255 258 258 253
2 357 7 12 353 0 3 354 354 352 349 353 351 348 350 3 359 344 334 334 346 54 270 29 354 341 353 356 353 333 349 16 321 301 302 287 281 265 260 283 284 264 261 239 252 248 246
351 356 1 6 360 359 353 356 351 350 352 356 354 347 359 360 348 341 337 343 43 39 354 347 342 336 327 0 343 348 336 355 343 336 341 328 325 340 12 339 304 295 188 217 229 218 240
346 3 15 7 354 349 351 358 352 349 355 358 355 3 23 351 337 349 351 39 49 7 3 331 332 320 335 353 322 335 334 341 337 88 306 337 330 335 306 325 294 285 266 203 212 213 224
13 15 3 348 344 353 357 354 351 350 353 359 359 24 27 359 354 0 8 38 37 343 325 332 321 333 336 334 324 352 322 257 266 324 346 308 303 305 307 318 303 289 209 220 34 1 192
15 1 1 357 358 1 357 358 356 350 354 1 356 13 9 6 7 13 52 12 324 316 328 331 312 318 329 323 332 348 345 269 334 299 191 266 297 305 318 315 339 283 306 153 187 209 192
357 355 358 358 3 5 2 353 350 354 355 3 8 360 8 11 22 27 90 263 306 333 334 317 323 300 270 321 321 304 255 301 351 320 317 243 275 312 333 341 335 340 27 332 63 200 171
350 358 2 2 3 355 350 360 1 357 355 4 4 9 2 356 32 2 5 320 311 326 344 327 297 212 239 322 307 308 303 243 324 344 322 284 240 307 306 292 41 11 12 16 334 267 248
348 357 1 354 351 358 354 352 352 354 358 359 1 308 359 16 45 346 328 321 290 323 351 347 302 343 343 321 319 305 320 317 343 348 306 329 321 328 340 343 287 353 335 324 302 245 219
349 356 354 360 1 350 345 354 353 356 0 0 6 6 334 359 356 104 317 298 317 332 316 330 288 331 337 322 322 292 313 312 325 328 325 343 253 194 285 280 288 305 302 308 283 292 338
346 348 5 358 351 355 347 352 357 354 2 16 31 9 346 304 328 316 282 250 305 336 302 324 312 337 312 307 314 323 323 319 321 326 315 105 283 299 294 294 294 294 286 286 284 286 26
340 347 358 351 359 344 341 351 360 1 354 29 14 342 288 278 290 286 298 273 327 320 148 292 319 317 314 279 293 311 316 310 305 310 332 267 275 313 307 301 330 314 10 36 36 20 51
333 353 336 343 348 343 350 350 357 359 0 360 336 327 273 253 276 54 266 287 312 314 306 315 301 311 310 311 312 298 290 277 257 280 291 233 318 321 287 323 309 47 12 34 46 35 23
331 326 335 341 343 340 342 348 351 349 353 337 327 325 283 283 220 275 297 303 303 312 290 306 318 335 311 322 322 329 318 295 296 3 43 346 328 283 293 317 54 55 18 358 52 46 33
318 326 337 341 329 334 342 344 343 338 342 328 328 326 282 278 273 292 306 323 290 302 291 283 343 330 331 331 346 340 332 352 13 10 355 44 3 310 323 315 270 15 349 338 346 48 22
312 327 331 326 331 335 339 338 334 339 342 328 321 325 306 305 261 313 313 320 292 290 327 270 327 333 348 6 11 354 337 335 338 331 353 339 326 154 335 321 28 356 333 343 143 108 9
310 322 324 326 330 334 334 338 344 342 333 321 324 325 294 266 288 295 294 282 320 333 251 307 342 330 5 22 328 333 321 353 345 328 333 332 355 33 299 302 88 354 342 340 45 316 332
306 312 320 326 327 330 334 339 338 334 329 320 326 307 305 274 293 281 272 314 302 307 311 307 345 352 10 30 31 286 52 278 358 285 337 10 337 350 330 5 354 0 5 45 306 312 323
307 311 322 324 326 328 333 336 330 330 326 319 323 323 305 260 269 300 292 347 313 290 283 266 259 294 264 182 232 252 305 350 173 294 4 58 1 289 38 294 46 358 53 0 345 333 328